| time (UTC) | temp C | wind direction | speed KPH | gust KPH | rain 1hr cm | rain 24hr cm | rain mn cm | humidity % | barometer mb |
| 20260507140001 | 16 | 231 | 17.7 | 29.0 | 0.00 | 0.28 | 0.28 | 66 | 1004.8 |
| 20260507134500 | 16 | 208 | 11.3 | 32.2 | 0.00 | 0.28 | 0.28 | 65 | 1005.1 |
| 20260507134001 | 16 | 211 | 24.1 | 37.0 | 0.00 | 0.28 | 0.28 | 66 | 1003.4 |
| 20260507133003 | 17 | 211 | 20.9 | 33.8 | 0.00 | 0.28 | 0.28 | 69 | 1002.3 |
| 20260507132500 | 17 | 226 | 12.9 | 35.4 | 0.00 | 0.28 | 0.28 | 69 | 1002.1 |
| 20260507132000 | 17 | 207 | 9.7 | 35.4 | 0.00 | 0.28 | 0.28 | 69 | 1001.9 |
| 20260507131459 | 17 | 201 | 20.9 | 35.4 | 0.00 | 0.28 | 0.28 | 68 | 1002.2 |
| 20260507131000 | 17 | 211 | 11.3 | 27.4 | 0.00 | 0.28 | 0.28 | 71 | 1002.1 |
| 20260507130500 | 17 | 205 | 12.9 | 27.4 | 0.00 | 0.28 | 0.28 | 70 | 1002.4 |
| 20260507125459 | 17 | 216 | 17.7 | 27.4 | 0.00 | 0.28 | 0.28 | 69 | 1002.5 |
| 20260507124459 | 17 | 222 | 14.5 | 32.2 | 0.00 | 0.28 | 0.28 | 68 | 1002.3 |
| 20260507124001 | 18 | 218 | 17.7 | 32.2 | 0.00 | 0.28 | 0.28 | 70 | 1001.8 |
| 20260507123459 | 18 | 212 | 17.7 | 29.0 | 0.00 | 0.28 | 0.28 | 73 | 1001.9 |
| 20260507123002 | 18 | 187 | 14.5 | 29.0 | 0.00 | 0.28 | 0.28 | 75 | 1001.8 |
| 20260507122459 | 18 | 173 | 17.7 | 27.4 | 0.00 | 0.28 | 0.28 | 76 | 1001.7 |
| 20260507122001 | 18 | 176 | 9.7 | 22.5 | 0.00 | 0.28 | 0.28 | 78 | 1001.9 |
| 20260507121001 | 18 | 176 | 11.3 | 32.2 | 0.00 | 0.28 | 0.28 | 81 | 1001.4 |
| 20260507120459 | 18 | 190 | 12.9 | 32.2 | 0.00 | 0.28 | 0.28 | 83 | 1001.4 |
| 20260507120001 | 18 | 206 | 12.9 | 22.5 | 0.00 | 0.28 | 0.28 | 84 | 1001.3 |
| 20260507115001 | 18 | 195 | 8.0 | 27.4 | 0.00 | 0.28 | 0.28 | 86 | 1001.3 |
| 20260507114500 | 18 | 203 | 14.5 | 29.0 | 0.00 | 0.28 | 0.28 | 86 | 1000.8 |
| 20260507114002 | 18 | 200 | 16.1 | 29.0 | 0.00 | 0.28 | 0.28 | 86 | 1000.9 |
| 20260507113500 | 18 | 202 | 19.3 | 29.0 | 0.00 | 0.28 | 0.28 | 86 | 1001.0 |
| 20260507113002 | 18 | 198 | 16.1 | 29.0 | 0.00 | 0.28 | 0.28 | 86 | 1000.9 |
| 20260507112500 | 18 | 169 | 14.5 | 29.0 | 0.00 | 0.28 | 0.28 | 86 | 1000.7 |
| 20260507112002 | 18 | 199 | 12.9 | 24.1 | 0.00 | 0.28 | 0.28 | 86 | 1000.5 |
| 20260507111500 | 18 | 221 | 12.9 | 25.7 | 0.00 | 0.28 | 0.28 | 87 | 1000.4 |
| 20260507111002 | 18 | 208 | 8.0 | 27.4 | 0.00 | 0.28 | 0.28 | 87 | 1000.4 |
| 20260507110459 | 18 | 208 | 11.3 | 38.6 | 0.00 | 0.28 | 0.28 | 87 | 1000.1 |
| 20260507110002 | 18 | 204 | 12.9 | 38.6 | 0.00 | 0.28 | 0.28 | 87 | 999.9 |
| 20260507105459 | 18 | 205 | 14.5 | 32.2 | 0.00 | 0.28 | 0.28 | 87 | 1000.0 |
| 20260507105001 | 19 | 202 | 16.1 | 32.2 | 0.00 | 0.28 | 0.28 | 87 | 1000.0 |
| 20260507104002 | 19 | 186 | 4.8 | 29.0 | 0.00 | 0.28 | 0.28 | 88 | 999.7 |
| 20260507103459 | 19 | 178 | 14.5 | 32.2 | 0.00 | 0.28 | 0.28 | 88 | 999.8 |
| 20260507103001 | 19 | 178 | 12.9 | 32.2 | 0.00 | 0.28 | 0.28 | 88 | 999.7 |
| 20260507102001 | 19 | 205 | 12.9 | 25.7 | 0.00 | 0.28 | 0.28 | 88 | 999.0 |
| 20260507101501 | 19 | 196 | 12.9 | 25.7 | 0.00 | 0.28 | 0.28 | 89 | 999.0 |
| 20260507100459 | 19 | 174 | 12.9 | 24.1 | 0.00 | 0.28 | 0.28 | 89 | 999.0 |
| 20260507100002 | 19 | 170 | 12.9 | 24.1 | 0.00 | 0.28 | 0.28 | 89 | 998.5 |
| 20260507095501 | 19 | 185 | 12.9 | 24.1 | 0.00 | 0.28 | 0.28 | 89 | 998.6 |
| 20260507095001 | 19 | 204 | 8.0 | 27.4 | 0.00 | 0.28 | 0.28 | 88 | 998.3 |
| 20260507094459 | 19 | 210 | 9.7 | 29.0 | 0.00 | 0.28 | 0.28 | 88 | 998.4 |
| 20260507093500 | 19 | 209 | 9.7 | 29.0 | 0.00 | 0.28 | 0.28 | 90 | 997.7 |
| 20260507093002 | 19 | 199 | 11.3 | 38.6 | 0.00 | 0.28 | 0.28 | 90 | 997.8 |
| 20260507092459 | 20 | 221 | 11.3 | 38.6 | 0.00 | 0.28 | 0.28 | 90 | 997.4 |
| 20260507092001 | 20 | 220 | 14.5 | 33.8 | 0.00 | 0.28 | 0.28 | 90 | 997.3 |
| 20260507091459 | 20 | 186 | 12.9 | 25.7 | 0.00 | 0.28 | 0.28 | 90 | 997.1 |
| 20260507091001 | 19 | 210 | 12.9 | 24.1 | 0.00 | 0.28 | 0.28 | 90 | 996.9 |
| 20260507090459 | 19 | 217 | 12.9 | 29.0 | 0.00 | 0.28 | 0.28 | 90 | 997.5 |
| 20260507090002 | 19 | 202 | 16.1 | 29.0 | 0.00 | 0.28 | 0.28 | 90 | 997.5 |
| 20260507085459 | 19 | 209 | 11.3 | 20.9 | 0.00 | 0.28 | 0.28 | 90 | 997.9 |
| 20260507085002 | 19 | 216 | 3.2 | 14.5 | 0.00 | 0.28 | 0.28 | 91 | 998.0 |
| 20260507084501 | 19 | 220 | 8.0 | 20.9 | 0.08 | 0.28 | 0.28 | 91 | 998.4 |
| 20260507084001 | 19 | 224 | 12.9 | 20.9 | 0.08 | 0.28 | 0.28 | 91 | 998.0 |
| 20260507083459 | 19 | 229 | 6.4 | 17.7 | 0.08 | 0.28 | 0.28 | 92 | 997.8 |
| 20260507083003 | 19 | 220 | 9.7 | 24.1 | 0.08 | 0.28 | 0.28 | 91 | 997.6 |
| 20260507082501 | 19 | 218 | 8.0 | 24.1 | 0.10 | 0.28 | 0.28 | 91 | 997.9 |
| 20260507082002 | 19 | 213 | 9.7 | 24.1 | 0.20 | 0.28 | 0.28 | 90 | 998.3 |
| 20260507081459 | 19 | 201 | 11.3 | 20.9 | 0.28 | 0.28 | 0.28 | 90 | 997.6 |
| 20260507080501 | 19 | 206 | 8.0 | 12.9 | 0.28 | 0.28 | 0.28 | 91 | 998.0 |
| 20260507080001 | 19 | 200 | 6.4 | 12.9 | 0.28 | 0.28 | 0.28 | 91 | 998.4 |
| 20260507075501 | 20 | 210 | 6.4 | 11.3 | 0.28 | 0.28 | 0.28 | 91 | 998.1 |
| 20260507075003 | 20 | 207 | 6.4 | 11.3 | 0.28 | 0.28 | 0.28 | 91 | 998.4 |
| 20260507074002 | 20 | 183 | 3.2 | 11.3 | 0.20 | 0.20 | 0.20 | 90 | 998.6 |
| 20260507073500 | 20 | 168 | 3.2 | 11.3 | 0.20 | 0.20 | 0.20 | 90 | 998.8 |
| 20260507073002 | 20 | 142 | 4.8 | 9.7 | 0.20 | 0.20 | 0.20 | 89 | 998.5 |
| 20260507072459 | 21 | 158 | 3.2 | 12.9 | 0.10 | 0.10 | 0.10 | 87 | 998.8 |
| 20260507072001 | 21 | 175 | 3.2 | 12.9 | 0.08 | 0.08 | 0.08 | 83 | 998.9 |
| 20260507071500 | 22 | 170 | 3.2 | 14.5 | 0.00 | 0.00 | 0.00 | 82 | 998.7 |
| 20260507071001 | 22 | 194 | 1.6 | 17.7 | 0.00 | 0.00 | 0.00 | 83 | 998.8 |
| 20260507070459 | 22 | 200 | 6.4 | 17.7 | 0.00 | 0.00 | 0.00 | 83 | 998.9 |
| 20260507070002 | 22 | 178 | 6.4 | 14.5 | 0.00 | 0.00 | 0.00 | 83 | 998.5 |
| 20260507065459 | 23 | 171 | 6.4 | 14.5 | 0.00 | 0.00 | 0.00 | 86 | 998.4 |
| 20260507065001 | 23 | 192 | 6.4 | 11.3 | 0.00 | 0.00 | 0.00 | 89 | 998.4 |
| 20260507064500 | 23 | 201 | 3.2 | 11.3 | 0.00 | 0.00 | 0.00 | 89 | 998.4 |
| 20260507064001 | 23 | 194 | 3.2 | 11.3 | 0.00 | 0.00 | 0.00 | 89 | 998.5 |
| 20260507063501 | 23 | 176 | 4.8 | 11.3 | 0.00 | 0.00 | 0.00 | 90 | 998.5 |
| 20260507063002 | 23 | 33 | 0.0 | 3.2 | 0.00 | 0.00 | 0.00 | 90 | 998.0 |
| 20260507062500 | 23 | 16 | 3.2 | 6.4 | 0.00 | 0.00 | 0.00 | 90 | 997.7 |
| 20260507062002 | 23 | 15 | 0.0 | 6.4 | 0.00 | 0.00 | 0.00 | 90 | 997.9 |
| 20260507061500 | 23 | 2 | 3.2 | 6.4 | 0.00 | 0.00 | 0.00 | 89 | 997.6 |
| 20260507061001 | 23 | 19 | 3.2 | 6.4 | 0.00 | 0.00 | 0.00 | 89 | 997.9 |
| 20260507060002 | 23 | 33 | 3.2 | 9.7 | 0.00 | 0.00 | 0.00 | 88 | 997.8 |
| 20260507055500 | 23 | 280 | 3.2 | 6.4 | 0.00 | 0.00 | 0.00 | 88 | 997.7 |
| 20260507055001 | 23 | 280 | 0.0 | 6.4 | 0.00 | 0.00 | 0.00 | 88 | 997.9 |
| 20260507053500 | 23 | 273 | 1.6 | 6.4 | 0.00 | 0.00 | 0.00 | 87 | 998.4 |
| 20260507053001 | 23 | 287 | 1.6 | 9.7 | 0.00 | 0.00 | 0.00 | 87 | 998.5 |
| 20260507052500 | 23 | 309 | 6.4 | 9.7 | 0.00 | 0.00 | 0.00 | 87 | 998.3 |
| 20260507051003 | 23 | 354 | 3.2 | 9.7 | 0.00 | 0.00 | 0.00 | 87 | 998.4 |
| 20260507050500 | 23 | 348 | 6.4 | 9.7 | 0.00 | 0.00 | 0.00 | 87 | 998.4 |
| 20260507050002 | 23 | 10 | 4.8 | 9.7 | 0.00 | 0.00 | 0.00 | 87 | 998.5 |
| 20260507045500 | 23 | 10 | 3.2 | 9.7 | 0.00 | 0.00 | 0.00 | 86 | 998.3 |
| 20260507045002 | 24 | 15 | 4.8 | 9.7 | 0.00 | 0.00 | 0.00 | 86 | 998.5 |
| 20260507044459 | 24 | 15 | 6.4 | 9.7 | 0.00 | 0.00 | 0.00 | 86 | 998.3 |
| 20260507044003 | 24 | 358 | 3.2 | 11.3 | 0.00 | 0.00 | 0.00 | 86 | 998.4 |
| 20260507043501 | 24 | 351 | 6.4 | 11.3 | 0.00 | 0.00 | 0.00 | 86 | 998.4 |
| 20260507042500 | 24 | 28 | 4.8 | 11.3 | 0.00 | 0.00 | 0.00 | 85 | 998.5 |
| 20260507042003 | 24 | 32 | 4.8 | 11.3 | 0.00 | 0.00 | 0.00 | 85 | 998.3 |
| 20260507041459 | 24 | 20 | 6.4 | 11.3 | 0.00 | 0.00 | 0.00 | 85 | 998.4 |
| 20260507041002 | 24 | 21 | 4.8 | 11.3 | 0.00 | 0.00 | 0.00 | 85 | 998.4 |
| 20260507040003 | 24 | 349 | 3.2 | 12.9 | 0.00 | 0.00 | 0.00 | 84 | 998.6 |
| 20260507035002 | 25 | 5 | 3.2 | 12.9 | 0.00 | 0.00 | 0.00 | 83 | 998.5 |
| 20260507034500 | 25 | 354 | 4.8 | 12.9 | 0.00 | 0.00 | 0.00 | 83 | 998.7 |
| 20260507033500 | 25 | 338 | 6.4 | 11.3 | 0.00 | 0.00 | 0.00 | 83 | 998.8 |
| 20260507033002 | 24 | 340 | 6.4 | 9.7 | 0.00 | 0.00 | 0.00 | 83 | 998.9 |
| 20260507032459 | 24 | 6 | 3.2 | 9.7 | 0.00 | 0.00 | 0.00 | 84 | 998.8 |
| 20260507032002 | 24 | 24 | 4.8 | 6.4 | 0.00 | 0.00 | 0.00 | 84 | 999.0 |
| 20260507031500 | 24 | 29 | 3.2 | 6.4 | 0.00 | 0.00 | 0.00 | 83 | 999.1 |
| 20260507031001 | 24 | 9 | 3.2 | 6.4 | 0.00 | 0.00 | 0.00 | 83 | 999.2 |
| 20260507030500 | 25 | 3 | 3.2 | 6.4 | 0.00 | 0.00 | 0.00 | 83 | 999.1 |
| 20260507030003 | 25 | 11 | 3.2 | 6.4 | 0.00 | 0.00 | 0.00 | 83 | 999.4 |
| 20260507025500 | 25 | 18 | 0.0 | 3.2 | 0.00 | 0.00 | 0.00 | 83 | 999.4 |
| 20260507025002 | 25 | 11 | 3.2 | 3.2 | 0.00 | 0.00 | 0.00 | 82 | 999.5 |
| 20260507024002 | 25 | 346 | 3.2 | 6.4 | 0.00 | 0.00 | 0.00 | 82 | 999.5 |
| 20260507023500 | 25 | 349 | 3.2 | 6.4 | 0.00 | 0.00 | 0.00 | 82 | 999.4 |
| 20260507023004 | 25 | 2 | 3.2 | 6.4 | 0.00 | 0.00 | 0.00 | 82 | 999.3 |
| 20260507022500 | 25 | 22 | 3.2 | 6.4 | 0.00 | 0.00 | 0.00 | 81 | 999.4 |
| 20260507022003 | 25 | 27 | 1.6 | 6.4 | 0.00 | 0.00 | 0.00 | 81 | 999.3 |
| 20260507021003 | 25 | 5 | 3.2 | 6.4 | 0.00 | 0.00 | 0.00 | 81 | 999.6 |
| 20260507020002 | 25 | 9 | 3.2 | 9.7 | 0.00 | 0.00 | 0.00 | 81 | 999.5 |
| 20260507015501 | 25 | 36 | 3.2 | 6.4 | 0.00 | 0.00 | 0.00 | 81 | 999.2 |
| 20260507015002 | 25 | 24 | 3.2 | 6.4 | 0.00 | 0.00 | 0.00 | 81 | 999.4 |
| 20260507014500 | 25 | 32 | 3.2 | 6.4 | 0.00 | 0.00 | 0.00 | 82 | 999.5 |
| 20260507014004 | 25 | 26 | 3.2 | 12.9 | 0.00 | 0.00 | 0.00 | 82 | 999.4 |
| 20260507013500 | 25 | 22 | 4.8 | 12.9 | 0.00 | 0.00 | 0.00 | 82 | 999.1 |
| 20260507013002 | 25 | 17 | 8.0 | 12.9 | 0.00 | 0.00 | 0.00 | 81 | 999.0 |
| 20260507012500 | 25 | 9 | 6.4 | 12.9 | 0.00 | 0.00 | 0.00 | 81 | 998.7 |
| 20260507012002 | 25 | 30 | 6.4 | 14.5 | 0.00 | 0.00 | 0.00 | 81 | 998.8 |
| 20260507011500 | 25 | 31 | 6.4 | 14.5 | 0.00 | 0.00 | 0.00 | 81 | 999.0 |
| 20260507011004 | 25 | 9 | 11.3 | 14.5 | 0.00 | 0.00 | 0.00 | 80 | 998.5 |
| 20260507010500 | 25 | 22 | 4.8 | 11.3 | 0.00 | 0.00 | 0.00 | 81 | 998.7 |
| 20260507005002 | 25 | 14 | 8.0 | 12.9 | 0.00 | 0.00 | 0.00 | 80 | 998.8 |
| 20260507004501 | 25 | 22 | 6.4 | 12.9 | 0.00 | 0.00 | 0.00 | 79 | 998.7 |
| 20260507004002 | 25 | 1 | 8.0 | 12.9 | 0.00 | 0.00 | 0.00 | 79 | 998.9 |
| 20260507003502 | 25 | 9 | 6.4 | 17.7 | 0.00 | 0.00 | 0.00 | 79 | 999.0 |
| 20260507002002 | 25 | 13 | 6.4 | 14.5 | 0.00 | 0.00 | 0.00 | 78 | 998.8 |
| 20260507001501 | 26 | 9 | 9.7 | 14.5 | 0.00 | 0.00 | 0.00 | 78 | 999.1 |
| 20260507001004 | 26 | 3 | 6.4 | 12.9 | 0.00 | 0.00 | 0.00 | 77 | 999.0 |
| 20260507000501 | 26 | 5 | 6.4 | 11.3 | 0.00 | 0.00 | 0.00 | 77 | 999.1 |
| 20260507000003 | 26 | 10 | 6.4 | 11.3 | 0.00 | 0.00 | 0.00 | 77 | 999.1 |
| 20260506235500 | 26 | 14 | 4.8 | 9.7 | 0.00 | 0.00 | 0.00 | 76 | 999.1 |
| 20260506235003 | 26 | 16 | 4.8 | 11.3 | 0.00 | 0.00 | 0.00 | 76 | 999.3 |
| 20260506234501 | 26 | 18 | 6.4 | 11.3 | 0.00 | 0.00 | 0.00 | 75 | 999.2 |
| 20260506233502 | 27 | 358 | 6.4 | 12.9 | 0.00 | 0.00 | 0.00 | 74 | 999.1 |
| 20260506233002 | 27 | 10 | 8.0 | 17.7 | 0.00 | 0.00 | 0.00 | 74 | 999.1 |
| 20260506232502 | 27 | 26 | 9.7 | 17.7 | 0.00 | 0.00 | 0.00 | 73 | 999.0 |
| 20260506232002 | 27 | 36 | 9.7 | 17.7 | 0.00 | 0.00 | 0.00 | 73 | 998.8 |
| 20260506231501 | 27 | 21 | 11.3 | 17.7 | 0.00 | 0.00 | 0.00 | 72 | 998.6 |
| 20260506231002 | 27 | 1 | 8.0 | 20.9 | 0.00 | 0.00 | 0.00 | 71 | 998.9 |
| 20260506230500 | 27 | 18 | 11.3 | 22.5 | 0.00 | 0.00 | 0.00 | 71 | 998.7 |
| 20260506230002 | 27 | 31 | 11.3 | 22.5 | 0.00 | 0.00 | 0.00 | 71 | 998.8 |
| 20260506225501 | 27 | 43 | 12.9 | 22.5 | 0.00 | 0.00 | 0.00 | 71 | 998.6 |
| 20260506225004 | 27 | 35 | 12.9 | 22.5 | 0.00 | 0.00 | 0.00 | 72 | 998.9 |
| 20260506224500 | 27 | 349 | 4.8 | 17.7 | 0.00 | 0.00 | 0.00 | 73 | 998.9 |
| 20260506224002 | 27 | 355 | 8.0 | 17.7 | 0.00 | 0.00 | 0.00 | 73 | 999.2 |
| 20260506223502 | 27 | 9 | 11.3 | 17.7 | 0.00 | 0.00 | 0.00 | 73 | 999.0 |
| 20260506222501 | 27 | 22 | 12.9 | 24.1 | 0.00 | 0.00 | 0.00 | 72 | 999.3 |
| 20260506222002 | 27 | 24 | 12.9 | 24.1 | 0.00 | 0.00 | 0.00 | 72 | 999.3 |
| 20260506221500 | 27 | 17 | 8.0 | 22.5 | 0.00 | 0.00 | 0.00 | 72 | 999.3 |
| 20260506221002 | 28 | 13 | 6.4 | 17.7 | 0.00 | 0.00 | 0.00 | 71 | 999.4 |
| 20260506220502 | 28 | 1 | 11.3 | 17.7 | 0.00 | 0.00 | 0.00 | 71 | 999.2 |
| 20260506220003 | 28 | 13 | 6.4 | 14.5 | 0.00 | 0.00 | 0.00 | 72 | 999.2 |
| 20260506215501 | 28 | 24 | 6.4 | 12.9 | 0.00 | 0.00 | 0.00 | 71 | 999.3 |
| 20260506215002 | 28 | 38 | 6.4 | 12.9 | 0.00 | 0.00 | 0.00 | 71 | 999.3 |
| 20260506213500 | 28 | 338 | 3.2 | 11.3 | 0.00 | 0.00 | 0.00 | 69 | 999.7 |
| 20260506213002 | 29 | 347 | 3.2 | 11.3 | 0.00 | 0.00 | 0.00 | 69 | 999.5 |
| 20260506212502 | 29 | 340 | 6.4 | 12.9 | 0.00 | 0.00 | 0.00 | 68 | 999.6 |
| 20260506212003 | 29 | 329 | 6.4 | 14.5 | 0.00 | 0.00 | 0.00 | 68 | 999.3 |
| 20260506211003 | 29 | 348 | 8.0 | 17.7 | 0.00 | 0.00 | 0.00 | 66 | 999.1 |
| 20260506210500 | 30 | 10 | 8.0 | 17.7 | 0.00 | 0.00 | 0.00 | 66 | 999.1 |
| 20260506205500 | 30 | 343 | 9.7 | 20.9 | 0.00 | 0.00 | 0.00 | 65 | 999.5 |
| 20260506205002 | 30 | 356 | 8.0 | 25.7 | 0.00 | 0.00 | 0.00 | 65 | 999.3 |
| 20260506204500 | 30 | 357 | 11.3 | 25.7 | 0.00 | 0.00 | 0.00 | 64 | 999.4 |
| 20260506204003 | 30 | 2 | 14.5 | 22.5 | 0.00 | 0.00 | 0.00 | 64 | 999.5 |
| 20260506203500 | 30 | 9 | 9.7 | 22.5 | 0.00 | 0.00 | 0.00 | 64 | 999.7 |
| 20260506203003 | 30 | 347 | 8.0 | 22.5 | 0.00 | 0.00 | 0.00 | 64 | 999.6 |
| 20260506202502 | 30 | 353 | 12.9 | 22.5 | 0.00 | 0.00 | 0.00 | 63 | 999.7 |
| 20260506202002 | 30 | 3 | 6.4 | 20.9 | 0.00 | 0.00 | 0.00 | 63 | 999.6 |
| 20260506201500 | 30 | 5 | 6.4 | 25.7 | 0.00 | 0.00 | 0.00 | 63 | 999.5 |
| 20260506201002 | 30 | 351 | 14.5 | 25.7 | 0.00 | 0.00 | 0.00 | 63 | 999.5 |
| 20260506200501 | 31 | 332 | 11.3 | 25.7 | 0.00 | 0.00 | 0.00 | 63 | 1000.0 |
| 20260506200004 | 31 | 346 | 12.9 | 25.7 | 0.00 | 0.00 | 0.00 | 63 | 1000.0 |
| 20260506195502 | 31 | 12 | 12.9 | 25.7 | 0.00 | 0.00 | 0.00 | 63 | 999.8 |
| 20260506195004 | 31 | 1 | 6.4 | 25.7 | 0.00 | 0.00 | 0.00 | 63 | 999.7 |
| 20260506194003 | 31 | 5 | 9.7 | 22.5 | 0.00 | 0.00 | 0.00 | 62 | 999.9 |
| 20260506193502 | 31 | 1 | 14.5 | 25.7 | 0.00 | 0.00 | 0.00 | 62 | 999.7 |
| 20260506193003 | 31 | 352 | 14.5 | 25.7 | 0.00 | 0.00 | 0.00 | 62 | 999.7 |
| 20260506192501 | 31 | 344 | 8.0 | 24.1 | 0.00 | 0.00 | 0.00 | 62 | 999.9 |
| 20260506192003 | 31 | 343 | 6.4 | 25.7 | 0.00 | 0.00 | 0.00 | 62 | 999.9 |
| 20260506191501 | 31 | 353 | 12.9 | 29.0 | 0.00 | 0.00 | 0.00 | 62 | 999.9 |
| 20260506191002 | 31 | 358 | 17.7 | 29.0 | 0.00 | 0.00 | 0.00 | 63 | 999.9 |
| 20260506190003 | 31 | 333 | 14.5 | 25.7 | 0.00 | 0.00 | 0.00 | 62 | 1000.1 |
| 20260506185501 | 30 | 338 | 9.7 | 22.5 | 0.00 | 0.00 | 0.00 | 63 | 1000.2 |
| 20260506185003 | 31 | 348 | 6.4 | 25.7 | 0.00 | 0.00 | 0.00 | 61 | 1000.2 |
| 20260506184501 | 31 | 346 | 11.3 | 25.7 | 0.00 | 0.00 | 0.00 | 61 | 1000.2 |
| 20260506184002 | 31 | 326 | 9.7 | 22.5 | 0.00 | 0.00 | 0.00 | 61 | 1000.4 |
| 20260506183501 | 30 | 341 | 12.9 | 29.0 | 0.00 | 0.00 | 0.00 | 62 | 1000.3 |
| 20260506182500 | 30 | 344 | 17.7 | 29.0 | 0.00 | 0.00 | 0.00 | 63 | 1000.4 |
| 20260506182002 | 30 | 354 | 16.1 | 22.5 | 0.00 | 0.00 | 0.00 | 62 | 1000.5 |
| 20260506181500 | 30 | 351 | 12.9 | 22.5 | 0.00 | 0.00 | 0.00 | 62 | 1000.4 |
| 20260506180502 | 31 | 13 | 12.9 | 24.1 | 0.00 | 0.00 | 0.00 | 61 | 1000.6 |
| 20260506180005 | 31 | 15 | 12.9 | 24.1 | 0.00 | 0.00 | 0.00 | 60 | 1000.5 |
| 20260506175502 | 30 | 24 | 14.5 | 25.7 | 0.00 | 0.00 | 0.00 | 63 | 1000.6 |
| 20260506175004 | 30 | 18 | 12.9 | 25.7 | 0.00 | 0.00 | 0.00 | 64 | 1000.8 |
| 20260506174500 | 30 | 350 | 11.3 | 32.2 | 0.00 | 0.00 | 0.00 | 63 | 1000.8 |
| 20260506173500 | 30 | 3 | 6.4 | 27.4 | 0.00 | 0.00 | 0.00 | 62 | 1001.2 |
| 20260506173004 | 31 | 9 | 14.5 | 27.4 | 0.00 | 0.00 | 0.00 | 60 | 1001.0 |
| 20260506172501 | 31 | 40 | 12.9 | 27.4 | 0.00 | 0.00 | 0.00 | 61 | 1001.2 |
| 20260506172004 | 31 | 22 | 16.1 | 27.4 | 0.00 | 0.00 | 0.00 | 60 | 1001.4 |
| 20260506171500 | 30 | 354 | 12.9 | 25.7 | 0.00 | 0.00 | 0.00 | 62 | 1001.4 |
| 20260506171003 | 30 | 7 | 12.9 | 27.4 | 0.00 | 0.00 | 0.00 | 63 | 1001.5 |
| 20260506170500 | 31 | 13 | 12.9 | 27.4 | 0.00 | 0.00 | 0.00 | 62 | 1001.6 |
| 20260506170004 | 31 | 10 | 12.9 | 24.1 | 0.00 | 0.00 | 0.00 | 62 | 1001.7 |
| 20260506165500 | 30 | 22 | 12.9 | 20.9 | 0.00 | 0.00 | 0.00 | 64 | 1002.0 |
| 20260506165003 | 31 | 35 | 9.7 | 20.9 | 0.00 | 0.00 | 0.00 | 64 | 1001.8 |
| 20260506164003 | 30 | 15 | 8.0 | 24.1 | 0.00 | 0.00 | 0.00 | 64 | 1001.9 |
| 20260506163004 | 30 | 34 | 8.0 | 24.1 | 0.00 | 0.00 | 0.00 | 67 | 1002.2 |
| 20260506162003 | 30 | 350 | 14.5 | 24.1 | 0.00 | 0.00 | 0.00 | 67 | 1002.0 |
| 20260506161501 | 30 | 5 | 16.1 | 24.1 | 0.00 | 0.00 | 0.00 | 66 | 1002.3 |
| 20260506161004 | 29 | 17 | 12.9 | 24.1 | 0.00 | 0.00 | 0.00 | 69 | 1002.4 |
| 20260506160500 | 29 | 11 | 9.7 | 24.1 | 0.00 | 0.00 | 0.00 | 68 | 1002.5 |